CAPE
1 2 3 0 5 3 0 0 1 4 7 1 1 0 1 1 1 1 0 3 3 4 3 3 3 1 0 0 0 0 12 73 0 0 0 0 0 11 24 1 112 197 198 171 221 101 365
0 0 0 1 0 0 0 0 1 2 5 1 1 1 0 0 1 1 2 2 2 4 2 2 3 0 0 0 0 0 0 0 0 0 0 0 0 48 52 1 11 33 83 113 122 91 81
0 2 1 3 1 0 0 0 1 4 6 1 1 1 0 1 1 3 3 1 2 1 1 0 2 0 0 0 0 0 0 0 0 0 0 0 0 27 4 0 8 114 65 52 128 162 120
0 0 0 3 1 0 0 0 0 1 1 3 1 2 2 2 3 3 2 0 1 0 0 0 0 0 0 0 0 0 0 0 0 0 0 0 0 0 14 3 48 66 37 96 104 150 502
0 0 0 0 0 0 0 0 0 0 0 0 1 3 3 3 2 1 0 0 0 0 0 0 0 0 0 0 0 0 0 0 0 0 0 0 0 3 35 10 36 65 5 120 36 26 278
9 7 0 2 0 0 0 0 0 0 0 0 0 0 0 0 0 0 0 0 0 0 0 0 0 0 0 0 0 0 0 0 0 0 0 0 0 0 0 0 199 0 53 27 50 48 388
18 12 0 0 0 0 0 0 0 0 0 0 0 0 0 0 0 0 0 0 0 0 0 0 0 0 0 0 0 0 0 0 0 0 0 0 0 1 20 0 5 35 72 168 197 129 136
12 2 0 0 0 0 0 0 0 0 0 0 0 0 0 0 0 0 0 0 0 0 0 0 0 0 0 0 0 0 0 0 0 0 0 0 0 15 1 26 22 72 135 102 142 105 133
14 0 0 0 0 0 0 0 0 0 0 0 0 0 0 0 0 0 0 0 0 0 0 0 0 0 0 0 0 0 0 0 0 0 0 0 0 3 25 52 73 28 52 36 92 178 14
17 6 0 0 0 0 0 0 0 0 0 0 0 0 0 0 0 0 0 0 0 0 0 0 0 0 0 0 0 0 0 0 0 0 0 0 0 15 26 76 73 52 64 80 128 63 63
3 3 0 0 0 0 0 0 0 0 0 0 0 0 0 0 0 0 0 0 0 0 0 0 0 0 0 0 0 0 0 0 0 0 0 0 0 29 81 61 69 143 24 23 4 0 24
0 0 0 0 0 0 0 0 0 0 0 0 0 0 0 0 0 0 0 0 0 0 0 0 0 0 0 0 0 0 0 0 0 0 0 0 1 25 121 2 5 92 74 55 2 0 0
0 0 0 0 0 0 0 0 0 0 0 0 0 0 0 0 0 0 0 0 0 0 0 0 0 0 0 0 0 0 0 0 0 0 0 0 0 0 58 1 4 54 10 9 0 0 4
9 12 8 5 2 0 0 0 0 0 0 0 0 0 0 0 0 0 0 0 0 0 0 0 0 0 0 0 0 0 0 0 0 0 0 0 0 1 78 9 3 6 0 7 50 7 18
26 32 24 17 11 3 0 0 0 0 0 0 0 0 0 0 0 0 0 0 0 0 0 0 0 0 0 0 0 0 0 0 0 0 0 0 0 0 2 12 21 10 5 0 3 0 1
29 27 26 21 8 0 0 0 0 0 0 0 0 0 0 0 0 0 0 0 0 0 0 0 0 0 0 0 0 0 0 0 0 0 0 0 0 0 1 2 5 0 0 0 0 22 28
14 15 17 17 8 4 1 0 0 0 0 0 0 0 0 0 0 0 0 0 0 0 0 0 0 0 0 0 0 0 0 0 0 0 0 0 0 0 0 0 0 0 0 0 0 0 0
15 13 10 7 3 1 4 0 0 0 0 0 0 0 0 0 0 0 0 0 0 0 0 0 0 0 0 0 0 0 0 0 0 0 0 0 0 0 0 0 0 0 0 0 0 0 1
18 13 11 7 10 29 17 0 0 0 0 0 0 0 0 0 0 0 0 0 0 0 0 0 0 0 0 0 0 0 0 0 0 0 0 0 0 0 0 0 0 0 0 0 0 0 0
8 7 5 6 22 17 6 0 0 0 0 0 0 0 1 0 0 0 0 0 0 0 0 0 0 0 0 0 0 0 0 0 0 0 0 0 0 0 0 0 0 0 0 0 0 0 0
3 4 4 4 12 19 12 4 0 0 0 0 0 0 1 2 0 0 0 0 0 0 0 0 0 0 0 0 0 0 0 0 0 0 0 0 0 0 0 0 0 0 0 0 0 0 0
4 2 2 3 4 14 15 15 0 0 0 0 0 0 0 0 0 0 0 0 0 0 0 0 0 0 0 0 0 0 0 0 0 0 0 0 0 0 0 0 0 0 0 0 0 0 0
6 1 0 1 2 14 10 9 1 0 0 0 0 0 0 0 4 2 0 0 0 0 0 0 0 0 0 0 0 0 0 0 0 0 0 0 0 0 0 0 0 0 0 0 0 0 0
8 6 0 0 0 2 7 6 5 1 0 0 0 0 0 11 15 2 12 57 0 0 0 0 0 0 0 0 0 0 0 0 0 0 0 0 0 0 0 0 0 0 3 19 300 434 412
11 10 4 0 0 0 2 2 5 4 2 0 0 0 0 3 4 0 26 53 34 3 0 0 0 0 0 0 0 0 0 3 3 0 0 0 0 0 0 0 0 0 7 18 115 594 538
4 15 11 3 0 0 0 2 2 7 1 0 0 0 0 4 41 7 5 50 42 41 4 0 20 12 0 1 0 93 28 0 0 0 0 0 2 0 0 0 0 69 73 20 11 541 586
3 4 15 11 4 0 0 1 2 4 1 0 0 0 0 4 6 64 40 6 23 48 56 1 44 11 0 62 1 0 0 0 0 2 0 0 7 0 0 0 0 255 378 403 53 796 512
18 3 24 20 13 6 0 1 2 1 2 1 0 0 0 4 0 0 0 0 0 15 134 162 61 8 0 141 32 0 0 0 13 14 0 160 0 32 16 5 137 117 267 564 419 352 473
42 6 4 6 12 19 6 1 1 1 3 0 0 0 0 0 0 0 0 0 0 0 0 61 99 215 4 79 27 163 117 139 54 54 9 6 16 17 89 40 135 158 28 38 90 455 288
CIN
0 0 0 0 0 -1 0 0 0 0 0 0 0 0 0 0 0 0 0 0 0 0 0 0 0 0 0 0 0 0 -20 -599 0 0 0 0 0 -2 -28 -32 -144 -115 -130 -104 -108 -207 -17
0 0 0 0 0 0 0 0 0 0 0 0 0 0 0 0 0 0 0 0 0 0 0 0 0 0 0 0 0 0 0 0 0 0 0 0 0 -51 -156 -62 -237 -319 -150 -165 -359 -144 -161
0 0 0 0 0 0 0 0 0 0 0 0 0 0 0 0 0 0 0 0 0 0 0 0 0 0 0 0 0 0 0 0 0 0 0 0 0 -37 -95 0 -246 -226 -203 -204 -210 -190 -112
0 0 0 0 0 0 0 0 0 0 0 0 0 0 0 0 0 0 0 0 0 0 0 0 0 0 0 0 0 0 0 0 0 0 0 0 0 0 -145 -182 -275 -214 -334 -384 -314 -239 -80
0 0 0 0 0 0 0 0 0 0 0 0 0 0 0 0 0 0 0 0 0 0 0 0 0 0 0 0 0 0 0 0 0 0 0 0 0 -68 -96 -88 -148 -195 -143 -303 -263 -216 -52
0 -1 0 0 0 0 0 0 0 0 0 0 0 0 0 0 0 0 0 0 0 0 0 0 0 0 0 0 0 0 0 0 0 0 0 0 0 0 0 0 -56 0 -274 -241 -311 -183 -250
0 0 0 0 0 0 0 0 0 0 0 0 0 0 0 0 0 0 0 0 0 0 0 0 0 0 0 0 0 0 0 0 0 0 0 0 -34 -85 -155 0 -125 -236 -260 -293 -324 -263 -298
0 -1 0 0 0 0 0 0 0 0 0 0 0 0 0 0 0 0 0 0 0 0 0 0 0 0 0 0 0 0 0 0 0 0 0 0 0 -44 -33 -96 -204 -150 -187 -228 -160 -245 -46
0 0 0 0 0 0 0 0 0 0 0 0 0 0 0 0 0 0 0 0 0 0 0 0 0 0 0 0 0 0 0 0 0 0 0 0 0 -46 -66 -99 -86 -53 -94 -110 -78 -19 -70
0 0 0 0 0 0 0 0 0 0 0 0 0 0 0 0 0 0 0 0 0 0 0 0 0 0 0 0 0 0 0 0 0 0 0 0 0 -62 -65 -29 -134 -170 -114 -71 -64 -68 -71
0 0 0 0 0 0 0 0 0 0 0 0 0 0 0 0 0 0 0 0 0 0 0 0 0 0 0 0 0 0 0 0 0 0 0 0 0 -45 -46 -22 -111 -115 -303 -119 -51 0 -92
0 0 0 0 0 0 0 0 0 0 0 0 0 0 0 0 0 0 0 0 0 0 0 0 0 0 0 0 0 0 0 0 0 0 0 0 -6 -27 -22 -44 -49 -26 -22 -153 -166 0 0
0 0 0 0 0 0 0 0 0 0 0 0 0 0 0 0 0 0 0 0 0 0 0 0 0 0 0 0 0 0 0 0 0 0 0 0 0 -39 -7 -13 -37 -29 -24 -53 -19 0 -80
0 -1 -1 -3 -6 0 0 0 0 0 0 0 0 0 0 0 0 0 0 0 0 0 0 0 0 0 0 0 0 0 0 0 0 0 0 0 0 -4 -25 -49 -54 -71 0 -48 -92 -137 -55
-3 -1 -1 -6 -9 -10 0 0 0 0 0 0 0 0 0 0 0 0 0 0 0 0 0 0 0 0 0 0 0 0 0 0 0 0 0 0 0 0 -40 -29 -47 -36 -41 0 -71 -11 -21
-3 -2 0 -3 -4 0 0 0 0 0 0 0 0 0 0 0 0 0 0 0 0 0 0 0 0 0 0 0 0 0 0 0 0 0 0 0 0 0 -16 -5 -24 0 0 0 0 -89 -66
-1 0 0 0 -4 0 0 0 0 0 0 0 0 0 0 0 0 0 0 0 0 0 0 0 0 0 0 0 0 0 0 0 0 0 0 0 0 0 -1 0 0 0 0 0 0 0 0
0 0 -6 -2 -20 0 -22 0 0 0 0 0 0 0 0 0 0 0 0 0 0 0 0 0 0 0 0 0 0 0 0 0 0 0 0 0 0 0 0 0 0 0 0 0 0 0 -110
0 -2 -5 0 -16 -25 -13 0 0 0 0 0 0 0 0 0 0 0 0 0 0 0 0 0 0 0 0 0 0 0 0 0 0 0 0 0 0 0 0 0 0 0 0 0 0 0 0
0 0 0 0 -3 -4 -15 0 0 0 0 0 0 0 -8 0 0 0 0 0 0 0 0 0 0 0 0 0 0 0 0 0 0 0 0 0 0 0 0 0 0 0 0 0 0 0 0
0 0 0 0 -10 -2 -8 0 0 0 0 0 0 0 -6 -46 0 0 0 0 0 0 0 0 0 0 0 0 0 0 0 0 0 0 0 0 0 0 0 0 0 0 0 0 0 0 0
0 0 0 0 0 -14 -5 0 -1 0 0 0 0 0 0 0 0 0 0 0 0 0 0 0 0 0 0 0 0 0 0 0 0 0 0 0 0 0 0 0 0 0 0 0 0 0 0
0 0 0 0 0 -16 0 -1 0 0 0 0 0 0 0 0 -92 -8 0 0 0 0 0 0 0 0 0 0 0 0 0 0 0 0 0 0 0 0 0 0 0 0 0 -2 0 0 0
-1 0 0 0 0 0 0 0 0 -1 0 0 0 0 0 -172 -109 -37 -98 -48 0 0 0 0 0 0 0 0 0 0 0 0 0 0 0 0 0 0 0 0 0 0 -23 -38 -107 -114 -110
0 0 -1 0 0 0 0 0 0 0 -2 0 0 0 0 -27 -202 -35 -102 -124 -156 -63 0 0 0 0 0 0 0 0 0 -6 -20 0 0 0 0 0 0 0 0 0 -36 -44 -52 -113 -126
-3 -1 -1 -2 0 0 0 0 0 0 -1 0 0 0 0 -9 -131 -175 -141 -148 -201 -70 -37 0 -30 -48 0 -10 0 -51 -51 0 0 0 0 0 -16 0 0 0 0 -54 -51 -82 -48 -86 -115
-7 -9 -3 -2 -2 0 0 0 0 0 0 0 0 0 0 -2 -47 -102 -149 -147 -198 -190 -66 -25 -36 -33 0 -81 -24 0 0 0 0 -30 0 0 -26 0 -1 0 0 -108 -82 -43 -12 -57 -108
-1 -10 -4 -3 -2 -2 0 0 0 0 0 0 0 0 0 -2 -11 0 0 0 0 -106 -109 -187 -74 -39 0 -60 -23 0 -3 0 -19 -28 0 -59 0 -55 -56 -18 -36 -134 -83 -83 -104 -106 -135
0 -6 -11 -7 -2 -3 0 0 0 0 0 0 0 0 0 0 0 0 0 0 0 0 0 -165 -147 -114 -8 -53 -35 -65 -40 -61 -56 -28 -88 -25 -40 -25 -70 -147 -133 -64 -131 -185 -165 -127 -146
Wind_Speed
11 11 12 12 14 14 14 15 16 16 16 19 19 20 21 21 22 23 22 21 21 20 20 17 14 11 5 3 10 4 7 7 4 2 4 7 12 3 14 11 15 9 11 13 7 17 3
11 11 12 12 13 14 15 15 16 16 17 20 21 21 22 22 22 23 22 22 22 20 18 16 11 6 2 5 7 10 8 8 7 5 6 9 7 12 14 13 8 11 11 11 14 6 5
10 11 12 13 13 14 15 15 15 16 18 20 21 22 23 23 23 24 24 24 22 21 16 12 6 4 5 16 6 11 10 8 6 7 9 11 14 8 6 8 8 6 8 10 5 4 3
9 11 12 13 14 14 15 16 15 15 16 20 22 22 24 24 23 24 24 25 24 20 13 10 3 5 9 7 14 9 9 8 8 8 11 15 10 14 8 6 4 4 6 6 9 13 8
10 10 11 12 14 14 15 16 16 16 16 18 19 22 22 23 23 23 25 28 24 15 8 2 4 3 10 1 7 6 8 10 9 9 10 14 5 10 10 2 2 6 3 14 19 7 12
10 10 11 12 14 14 15 16 17 17 17 19 20 22 23 24 24 23 26 27 9 7 5 7 9 4 8 10 6 9 7 9 10 8 7 8 7 4 4 4 5 5 7 6 16 24 15
10 12 10 12 14 14 15 16 17 17 18 20 21 22 25 26 26 20 15 5 1 1 6 10 8 7 2 11 7 8 9 6 7 6 7 10 5 8 20 15 8 10 15 18 21 19 17
10 8 9 12 14 15 15 16 17 17 18 20 22 23 25 29 29 23 4 4 6 5 8 14 19 16 21 5 4 4 7 8 7 8 8 7 5 9 18 8 6 10 17 18 16 21 9
9 9 10 12 13 14 15 17 17 18 18 20 22 23 25 30 34 5 7 12 5 8 4 8 14 9 10 2 6 11 7 8 8 9 9 10 13 19 14 11 10 8 11 6 6 5 3
8 9 10 12 14 15 15 17 17 18 18 19 21 22 23 31 6 10 7 7 7 7 3 8 11 9 6 5 7 10 12 10 7 13 12 9 8 10 17 12 20 6 20 15 11 6 2
10 10 11 12 14 15 16 17 17 18 18 19 20 20 19 8 8 6 9 16 9 3 2 12 11 6 9 10 2 10 12 7 13 14 7 16 10 11 11 6 24 15 13 14 15 7 4
13 12 13 14 15 16 16 17 17 17 18 19 20 20 18 5 4 13 16 17 8 1 8 7 9 10 8 11 10 6 8 8 8 10 13 11 6 4 9 3 4 6 5 10 7 9 5
13 14 14 14 15 16 16 17 17 17 18 19 21 23 11 6 6 9 14 6 1 5 5 10 8 11 11 9 8 10 9 8 7 3 7 11 10 13 3 3 5 3 2 7 8 6 6
14 14 14 15 15 15 16 17 18 17 17 19 21 28 8 10 8 9 4 3 5 11 10 9 11 11 10 10 10 10 9 7 11 9 5 6 8 8 6 7 7 4 2 6 7 4 2
14 14 14 15 14 15 17 17 17 16 16 17 24 5 7 8 12 6 2 4 8 8 4 4 16 11 11 9 8 7 9 9 10 10 7 2 7 7 8 6 10 5 3 6 11 7 6
16 17 17 18 18 18 18 17 14 15 18 14 7 5 8 10 12 5 3 7 9 10 17 14 9 11 10 10 10 8 10 10 10 11 10 10 6 8 14 7 5 5 2 7 5 6 3
17 18 19 18 19 19 18 14 11 15 21 20 3 5 5 12 10 3 6 8 7 17 18 8 8 3 10 10 11 9 10 9 14 13 11 7 3 12 6 3 3 5 2 3 8 7 7
16 17 18 20 22 19 14 9 11 14 24 7 5 4 3 8 4 4 9 7 6 20 22 11 6 7 8 5 10 10 8 9 12 12 6 9 1 3 7 6 8 4 6 3 6 6 5
15 16 18 20 23 11 6 8 10 12 14 6 4 6 7 5 5 8 10 17 20 20 20 5 6 6 13 10 6 8 8 5 7 6 2 3 1 4 11 9 2 5 3 2 3 3 3
16 17 18 19 19 14 10 9 10 10 10 3 4 5 5 6 7 13 12 14 16 18 20 15 6 7 11 11 9 7 7 5 11 6 7 7 2 5 8 7 3 5 7 6 5 2 5
15 16 17 18 19 13 10 10 10 11 11 3 4 6 6 5 7 12 14 14 17 18 8 6 9 12 9 8 8 3 7 9 8 3 4 4 2 6 10 8 7 0 5 5 6 6 4
14 15 16 17 17 15 13 10 11 13 18 3 4 5 6 12 12 15 11 18 18 20 9 7 8 16 11 7 7 6 8 7 6 4 3 2 3 3 8 8 8 6 9 9 3 4 4
12 14 15 15 16 18 12 11 12 14 14 4 6 7 6 8 9 11 10 15 17 15 10 14 12 10 8 11 8 9 7 10 12 11 7 4 4 1 6 7 6 5 7 7 2 3 3
11 12 13 14 15 15 15 13 12 11 10 5 3 5 5 8 9 10 21 17 20 15 6 13 13 9 11 10 8 8 9 3 13 10 10 6 4 3 4 5 2 8 9 9 19 14 14
12 12 11 12 13 13 14 14 13 12 9 4 4 4 5 8 10 15 22 19 20 16 5 6 5 8 10 3 4 4 4 4 5 15 9 8 5 1 5 1 4 11 6 6 6 8 11
12 11 11 11 12 12 13 14 14 13 13 6 7 6 5 6 5 14 20 16 11 10 5 5 2 3 2 1 3 4 4 4 2 3 6 7 4 6 2 2 1 2 10 8 6 5 8
11 11 12 11 10 11 12 13 14 15 14 7 7 6 5 6 9 7 7 12 9 9 6 4 2 2 4 1 2 3 3 2 2 6 2 3 3 3 2 3 1 5 8 7 3 2 6
10 10 12 10 11 10 11 12 13 15 15 8 9 9 3 7 11 16 15 16 12 11 5 8 5 2 2 1 2 3 3 6 2 7 9 6 5 0 1 1 2 6 5 7 4 4 6
9 9 9 10 11 9 10 12 13 13 14 12 5 8 9 5 10 17 18 21 17 17 10 5 4 3 5 1 2 2 2 3 5 1 2 3 6 5 7 7 6 5 9 8 8 4 5
Wind_Direction
10 3 359 8 0 352 349 349 349 348 346 349 344 340 335 332 329 326 326 318 315 317 314 313 312 314 307 236 254 150 138 120 170 182 224 265 281 106 81 24 327 50 356 3 72 180 98
1 358 353 348 350 349 347 347 348 347 345 346 343 338 334 331 328 324 316 314 312 312 311 307 308 308 261 259 198 152 184 159 220 200 263 251 265 96 80 37 51 314 297 53 323 63 14
354 349 350 345 346 345 340 345 345 345 346 344 340 337 333 329 325 317 316 312 310 310 307 300 292 248 262 244 334 161 188 211 181 246 261 269 272 102 101 174 264 300 332 357 224 232 322
348 347 343 342 340 345 340 339 344 345 347 340 337 333 330 327 320 317 314 310 306 302 296 283 215 244 252 236 250 195 182 225 228 222 252 274 301 107 92 91 51 9 23 4 328 321 337
336 338 339 340 336 342 340 335 338 338 334 334 335 330 325 321 319 318 313 308 300 288 255 196 188 226 270 210 200 255 189 203 222 243 256 271 313 93 119 138 53 7 310 18 334 337 336
324 326 335 337 336 338 339 335 335 335 331 328 326 325 323 321 320 321 315 298 286 308 203 204 258 291 256 240 193 228 232 202 208 227 257 258 60 78 357 97 181 164 93 101 280 284 171
318 319 333 335 333 337 338 334 334 333 330 327 325 324 322 322 319 324 336 345 33 278 247 216 198 230 199 226 167 210 195 223 254 228 224 251 106 134 236 240 173 162 147 169 238 258 202
323 336 339 334 333 336 337 333 331 331 328 326 325 324 323 322 317 318 266 263 14 295 296 244 254 264 265 231 165 200 181 177 219 235 226 274 170 228 207 235 151 223 194 211 227 244 128
329 339 338 334 330 334 335 331 328 329 326 325 324 325 326 324 316 295 251 265 305 302 273 266 218 244 228 7 233 198 205 202 217 238 236 216 178 201 211 212 136 237 244 277 229 101 41
344 344 338 334 330 330 331 328 325 326 324 323 322 325 331 333 343 335 286 345 342 325 302 256 182 236 208 196 254 246 181 179 230 231 238 234 190 216 263 198 150 62 264 253 53 78 82
356 344 338 333 327 324 325 323 322 322 321 320 319 322 327 315 303 296 307 328 313 342 278 187 177 185 186 192 279 236 173 197 224 236 181 250 183 205 247 165 152 219 228 89 63 44 114
348 341 335 328 322 320 320 318 318 318 317 315 314 318 333 320 233 249 286 285 298 306 242 143 153 184 171 214 260 185 149 201 241 257 275 258 222 162 217 93 267 96 98 49 30 47 9
330 327 324 321 318 318 318 315 314 315 314 312 312 308 302 283 243 336 328 316 215 232 251 148 164 166 188 198 240 167 169 193 217 238 294 300 286 169 114 171 261 172 168 57 329 23 241
333 324 321 318 315 316 317 315 313 314 316 314 314 306 247 208 226 252 272 324 246 244 257 164 155 174 202 183 231 183 171 190 234 244 252 228 305 233 178 165 194 333 70 158 181 180 263
342 343 335 330 331 328 321 315 313 317 321 322 311 289 264 226 208 242 285 224 215 230 271 188 160 168 201 207 184 231 179 195 217 219 223 286 260 335 292 203 151 205 244 239 91 42 91
345 348 345 338 331 325 320 313 317 326 321 329 317 280 253 230 154 184 216 252 250 308 324 322 142 152 183 213 196 198 180 208 225 209 213 261 311 245 254 164 164 138 201 18 356 156 201
343 340 337 332 324 319 314 314 335 336 325 324 248 277 255 168 157 190 223 242 298 280 289 334 0 294 189 189 207 220 207 227 200 237 200 228 198 290 9 119 125 7 359 226 115 134 154
340 338 336 331 324 316 306 332 356 350 336 345 293 275 213 146 175 214 238 252 281 287 296 289 342 319 290 244 187 205 199 216 207 201 219 202 74 296 257 161 135 190 234 218 130 257 206
339 340 341 337 333 328 3 18 6 3 16 318 283 282 272 198 220 233 250 251 259 269 277 278 279 287 311 303 202 162 226 26 134 85 31 21 42 343 330 347 167 179 213 299 354 65 282
341 341 346 345 347 9 17 12 3 1 3 314 279 280 232 226 228 258 251 244 245 261 264 268 301 277 295 303 316 184 166 78 76 103 58 52 349 169 212 234 263 158 200 201 152 69 279
342 343 347 351 351 355 354 357 355 349 337 303 246 260 350 297 229 235 257 278 278 249 227 291 303 286 264 286 309 244 130 109 97 109 62 93 270 299 294 293 325 308 223 187 180 212 146
339 343 347 351 350 350 350 359 360 344 329 239 290 346 332 289 279 280 252 251 264 275 216 216 238 275 262 272 233 292 130 137 151 114 139 264 252 292 298 317 335 349 341 335 282 338 228
328 337 344 349 352 355 348 10 5 356 336 301 10 329 299 293 292 281 241 242 254 263 203 231 225 257 264 267 279 272 283 157 156 144 172 203 177 198 276 309 313 333 274 268 193 314 310
319 324 335 343 352 353 4 4 3 8 10 311 287 302 277 289 316 319 317 301 254 260 263 223 201 233 252 293 294 308 295 235 162 161 159 189 179 152 219 38 345 251 4 65 69 42 30
322 317 323 334 342 348 349 352 353 352 346 304 293 280 311 297 312 300 343 330 335 305 223 275 232 192 233 256 304 270 306 358 138 166 184 175 155 137 125 196 286 321 26 38 71 29 35
317 319 319 322 333 340 341 342 345 344 344 311 281 245 269 284 237 343 318 352 326 314 174 268 35 16 34 178 233 194 185 137 126 81 24 357 79 114 106 132 240 24 13 9 20 45 32
301 316 316 313 321 329 335 339 339 343 344 326 276 291 275 288 280 340 325 317 314 328 290 218 323 8 335 324 250 171 244 40 191 138 173 310 354 125 333 196 153 345 5 316 57 214 36
292 304 319 317 316 317 325 332 337 340 343 338 278 281 266 286 287 287 286 294 314 344 335 339 352 340 309 296 259 213 145 231 234 192 181 156 122 334 271 137 113 357 37 81 200 25 33
281 291 309 317 319 318 320 325 331 336 339 335 278 347 325 267 290 304 278 269 270 279 310 321 317 280 222 234 266 25 337 41 116 45 71 123 158 170 123 210 228 100 118 73 56 54 10